Tracking 23885 objects as of 27-Nov-2021
HD Live streaming from Space Station
objects crossing your sky now

SL-3 DEB

Track SL-3 DEB now!
10-day predictions


NORAD ID: 20348
Int'l Code: 1972-049C
Perigee: 859.6 km
Apogee: 930.2 km
Inclination: 81.2 °
Period: 102.7 minutes
Semi major axis: 7265 km
RCS: 0.0122 m2 (small)
Launch date: June 30, 1972
Source: Commonwealth of Independent States (former USSR) (CIS)
Launch site: PLESETSK MISSILE AND SPACE COMPLEX (PKMTR)

Note: This is SATELLITE DEBRIS
aabbcc
Your satellite tracking list
Your tracking list is empty




NASA's NSSDC Master Catalog

Two Line Element Set (TLE):
1 20348U 72049C   21330.94543760  .00000142  00000-0  84828-4 0  9997
2 20348  81.2408 218.8439 0048620 355.0366   5.0311 14.01738010524966
Source of the keplerian elements: AFSPC